This is the latest recevied weather packets stored in our database for station/object SV3CQY. If no packets are shown the sender has not sent any weather packets the latest 10 day(s).
| Time | Temp. | Humidity | Pressure | Rain* | Wind** | Luminosity | Snow |
|---|---|---|---|---|---|---|---|
| 1777396813 | 18.33° C | 63% | 1015.2 hPa | 0 mm | - | - | - |
| 1777396212 | 18.89° C | 67% | 1015.1 hPa | 0 mm | - | - | - |
| 1777395643 | 20.56° C | 60% | 1015 hPa | 0 mm | - | - | - |
| 1777394109 | 20.56° C | 59% | 1015 hPa | 0 mm | - | - | - |
| 1777392310 | 20° C | 55% | 1015.1 hPa | 0 mm | - | - | - |
| 1777389332 | 20° C | 54% | 1015.4 hPa | 0 mm | - | - | - |
| 1777382709 | 22.78° C | 44% | 1015.1 hPa | 0 mm | - | - | - |
| 1777382414 | 22.78° C | 44% | 1015.1 hPa | 0 mm | - | - | - |
| 1777377626 | 21.11° C | 44% | 1015.9 hPa | 0 mm | - | - | - |
| 1777377312 | 21.67° C | 42% | 1015.8 hPa | 0 mm | - | - | - |
| 1777376112 | 23.33° C | 43% | 1015.8 hPa | 0 mm | - | - | - |
| 1777374612 | 22.78° C | 42% | 1016 hPa | 0 mm | - | - | - |
| 1777374027 | 22.22° C | 44% | 1016.1 hPa | 0 mm | - | - | - |
| 1777372811 | 22.22° C | 42% | 1016.2 hPa | 0 mm | - | - | - |
| 1777372510 | 22.22° C | 42% | 1016.2 hPa | 0 mm | - | - | - |
| 1777371612 | 21.67° C | 45% | 1016.3 hPa | 0 mm | - | - | - |
| 1777370427 | 21.11° C | 46% | 1016.6 hPa | 0 mm | - | - | - |
| 1777369811 | 21.11° C | 48% | 1016.6 hPa | 0 mm | - | - | - |
| 1777368910 | 21.11° C | 45% | 1016.9 hPa | 0 mm | - | - | - |
| 1777365029 | 20.56° C | 53% | 1017.3 hPa | 0 mm | - | - | - |
| 1777362008 | 20° C | 60% | 1017.2 hPa | 0 mm | - | - | - |
| 1777361708 | 20° C | 61% | 1017.2 hPa | 0 mm | - | - | - |
| 1777359310 | 19.44° C | 63% | 1017.3 hPa | 0 mm | - | - | - |
| 1777353328 | 16.67° C | 67% | 1017.1 hPa | 0 mm | - | - | - |
| 1777352711 | 16.11° C | 72% | 1017.1 hPa | 0 mm | - | - | - |
* Rain latest hour (hover to see other rain measurements)
** Current wind speed in m/s (hover to see current wind gust speed)